Flag for Germany Weather past 2 weeks in Pirna, Saxony, Germany

Now
69 °F

Overcast.


Feels Like: 69 °F
Forecast: 54 / 71 °F
Wind: 6 mph from Southeast

Location: Dresden-Klotzsche

Current Time: Sep 18, 2014 at 4:44:42 PM

Latest Report: Sep 18, 2014 at 4:00 PM


Visibility: 22 mi

Pressure: 29.94 "Hg

Humidity: 57%

Dew point: 53 °F

Location of PirnaLocation

Historic Weather in Pirna — Graph

°F

Pirna temperature yesterday

Maximum temperature yesterday: 74 °F (at 4:00 PM)
Minimum temperature yesterday: 59 °F (at 7:00 AM)
Average temperature yesterday: 65 °F

Past Weeks' High & Low Weather Summary

 TemperatureHumidityPressure
High80 °F (Sep 6, 3:00 PM)100% (Sep 15, 8:00 AM)30.22 "Hg (Sep 15, 8:00 AM)
Low52 °F (Sep 4, 4:00 AM)45% (Sep 17, 3:00 PM)29.86 "Hg (Sep 6, 4:00 PM)
Average63 °F83%30.03 "Hg
* Reported Sep 3 3:00 PM — Sep 18 3:00 PM, Pirna, Weather by CustomWeather, © 2014

Note: Actual official high and low records may vary slightly from our data, if they occured in-between our weather recording intervals... More about our weather records

Advertising

Pirna weather history for previous 24 hours

 ConditionsComfort  
Time TempWeatherWind HumidityBarometerVisibility
3:00 PM
Sep 18
69 °FOvercast.6 mph59%29.95 "Hg22 mi
2:00 PM68 °FPartly sunny.7 mph59%29.95 "Hg22 mi
1:00 PM67 °FOvercast.7 mph63%29.96 "Hg22 mi
12:00 PM67 °FPartly sunny.7 mph65%29.96 "Hg22 mi
11:00 AM65 °FScattered clouds.7 mph66%29.96 "Hg19 mi
10:00 AM64 °FScattered clouds.8 mph70%29.96 "Hg19 mi
9:00 AM61 °FPassing clouds.7 mph77%29.96 "Hg17 mi
8:00 AM59 °FPassing clouds.6 mph82%29.96 "Hg14 mi
7:00 AM57 °FPassing clouds.6 mph85%29.96 "Hg16 mi
6:00 AM57 °FClear.5 mph84%29.97 "Hg22 mi
5:00 AM58 °FClear.5 mph84%29.98 "Hg22 mi
4:00 AM59 °FClear.3 mph80%29.99 "Hg22 mi
3:00 AM60 °FClear.3 mph78%29.99 "Hg22 mi
2:00 AM61 °FClear.5 mph76%29.99 "Hg22 mi
1:00 AM61 °FClear.5 mph76%29.99 "Hg22 mi
12:00 AM62 °FClear.5 mph74%29.99 "Hg22 mi
10:00 PM
Sep 17
64 °FClear.5 mph69%29.99 "Hg25 mi
9:00 PM65 °FPassing clouds.5 mph68%29.99 "Hg25 mi
8:00 PM67 °FPassing clouds.3 mph63%29.98 "Hg25 mi
7:00 PM70 °FPassing clouds.3 mph58%29.97 "Hg25 mi
6:00 PM72 °FPassing clouds.6 mph52%29.96 "Hg25 mi
5:00 PM73 °FPassing clouds.8 mph49%29.96 "Hg25 mi
4:00 PM74 °FPassing clouds.7 mph47%29.97 "Hg25 mi
Weather by CustomWeather, © 2014

See weather overviewHow to use our weather pages